User: anonymous   Login
Location: Molalla
(45.1473°N, 122.5770°W)
Time: 18:00:10
(UTC-08:00)
Language:

Tiros 1 - Orbit

View from above orbital plane
View from above orbital plane
View from above satellite
View from above satellite

Ground track
Ground track

The orbit data is extracted from the following two-line orbital elements,

1    29U 60002B   19326.20254643 -.00000118  00000-0  13524-4 0  9996
2    29  48.3788 211.3988 0023763  60.7248 299.6035 14.74329495187931
Epoch (UTC): 22 November 2019 04:51:40
Eccentricity: 0.0023763
inclination: 48.3788°
perigee height: 630 km
apogee height: 664 km
right ascension of ascending node: 211.3988°
argument of perigee: 60.7248°
revolutions per day: 14.74329495
mean anomaly at epoch: 299.6035°
orbit number at epoch: 18793

The dashed part of the orbit path shows where the satellite is in the earth's shadow,  

DLR